(179460) = 2002 AK190

Discovered at Anderson Mesa on 2002-01-11 by LONEOS.

Orbit

Orbit type: Main Belt

Note: WebGL enabled browser required.

epoch2024-03-31.0
epoch JD2460400.5
perihelion date2022-03-19.83590
perihelion JD2459658.33590
argument of perihelion (°)102.73958
ascending node (°)338.79214
inclination (°)11.02904
eccentricity0.1189170
perihelion distance (AU)2.6258536
Tisserand w.r.t. Jupiter3.2
ΔV w.r.t. Earth (km/sec)10.7
semimajor axis (AU)2.9802566
mean anomaly (°)142.17502
mean daily motion (°/day)0.19156820
aphelion distance (AU)3.335
period (years)5.14
P-vector [x]0.14074478
P-vector [y]0.81784622
P-vector [z]0.55795919
Q-vector [x]-0.98762417
Q-vector [y]0.15537477
Q-vector [z]0.02138199
absolute magnitude15.99
phase slope0.15
uncertainty0
referenceMPEC 2024-C24
observations used435
oppositions13
arc length (days)8227
first opposition used2000
last opposition used2023
residual rms (arc-secs)0.72
perturbers coarse indicatorM-v
perturbers precise indicator003Ek
first observation date used2000-10-03.0
last observation date used2023-04-13.0
computer nameMPCLINUX
JD of orbit computation2456406.185649
perihelion JD uncertainty (days)1.9328E-04
argument of perihelion uncertainty (°)3.7090E-05
ascending node uncertainty (°)8.8989E-06
inclination uncertainty (°)4.2037E-06
eccentricity uncertainty 1.7558E-08
perihelion distance uncertainty (AU)4.5746E-08
Minimum Orbit Intersection Distances (in AU)
for orbit epoch: 2460200.5, reference: E2024-C24
Mercury2.32024
Venus1.92158
Earth1.66783
Mars1.06788
Jupiter1.91587
Saturn6.44846
Uranus15.4727
Neptune26.9542

Observations

446 total observations over interval: 2000 10 03.27508 – 2023 04 13.371141
These data are available for download (format description).

Date (UT) J2000 RA J2000 Dec Magn Location Ref
2000 10 03.27508 23 57 34.96 +07 53 24.0 20.0   704 – Lincoln Laboratory ETS, New Mexico MPS 141046
2000 10 03.31702 23 57 32.69 +07 53 18.4 19.9   704 – Lincoln Laboratory ETS, New Mexico MPS 141046
2000 10 03.33458 23 57 31.74 +07 53 14.9 20.4   704 – Lincoln Laboratory ETS, New Mexico MPS 141046
2001 12 19.53007 08 39 41.11 +30 58 35.9 20.6   644 – Palomar Mountain/NEAT MPS 59874
2001 12 19.54064 08 39 40.77 +30 58 37.3 20.4   644 – Palomar Mountain/NEAT MPS 59874
2001 12 19.55108 08 39 40.45 +30 58 38.6 20.4   644 – Palomar Mountain/NEAT MPS 59874
2002 01 11.24915 08 21 37.80 +31 37 01.4 19.3 R 699 – Lowell Observatory-LONEOS MPS 55318
2002 01 11.27756 08 21 36.00 +31 37 01.6   699 – Lowell Observatory-LONEOS MPS 55318
2002 01 11.30602 08 21 34.18 +31 37 03.8   699 – Lowell Observatory-LONEOS MPS 55318
2002 01 11.35084 08 21 31.27 +31 37 06.1   699 – Lowell Observatory-LONEOS MPS 55318
2002 01 13.33557 08 19 28.02 +31 38 22.2 19.1   644 – Palomar Mountain/NEAT MPS 55318
2002 01 13.39924 08 19 23.91 +31 38 24.0 19.4   644 – Palomar Mountain/NEAT MPS 55318
2002 01 13.46201 08 19 19.83 +31 38 25.5 19.5   644 – Palomar Mountain/NEAT MPS 55318
2002 01 14.232050 08 18 31.712 +31 38 45.40 19.66 V 645 – Apache Point-Sloan Digital Sky Survey MPS 80048
2002 01 14.235522 08 18 31.483 +31 38 45.48 20.37   645 – Apache Point-Sloan Digital Sky Survey MPS 80048
2002 02 03.22345 07 57 49.00 +31 16 58.3 19.5 R 699 – Lowell Observatory-LONEOS MPS 58961
2002 02 03.24687 07 57 47.76 +31 16 54.0   699 – Lowell Observatory-LONEOS MPS 58961
2002 02 03.27027 07 57 46.38 +31 16 52.0   699 – Lowell Observatory-LONEOS MPS 58961
2002 02 03.29371 07 57 45.04 +31 16 47.8   699 – Lowell Observatory-LONEOS MPS 58961
2005 08 27.43285 23 38 46.80 +00 29 10.5 20.1   644 – Palomar Mountain/NEAT MPS 140161
2005 08 27.45422 23 38 45.82 +00 29 09.2 20.2   644 – Palomar Mountain/NEAT MPS 140161
2005 08 27.47669 23 38 44.77 +00 29 07.9 20.4   644 – Palomar Mountain/NEAT MPS 140161
2005 08 30.04742 23 36 47.78 +00 26 50.0 19.5 R 599 – Campo Imperatore-CINEOS MPS 140161
2005 08 30.06237 23 36 47.06 +00 26 49.5 19.3 R 599 – Campo Imperatore-CINEOS MPS 140161
2005 08 30.07066 23 36 46.66 +00 26 48.8 19.4 R 599 – Campo Imperatore-CINEOS MPS 140161
2005 09 03.287357 23 33 23.802 +00 21 49.20 20.33 V 645 – Apache Point-Sloan Digital Sky Survey MPS 390154
2005 09 03.290829 23 33 23.622 +00 21 48.93 21.14   645 – Apache Point-Sloan Digital Sky Survey MPS 390154
2005 09 09.297047 23 28 17.357 +00 12 29.44 20.06 V 645 – Apache Point-Sloan Digital Sky Survey MPS 390154
2005 09 09.300519 23 28 17.173 +00 12 29.02 20.81   645 – Apache Point-Sloan Digital Sky Survey MPS 390154
2005 09 14.31047 23 23 53.69 +00 03 15.6 20.0 V 691 – Steward Observatory, Kitt Peak-Spacewatch MPS 141676
2005 09 14.32801 23 23 52.72 +00 03 13.5 20.0 V 691 – Steward Observatory, Kitt Peak-Spacewatch MPS 141676
2005 09 14.35259 23 23 51.39 +00 03 10.5 20.1 V 691 – Steward Observatory, Kitt Peak-Spacewatch MPS 141676
2005 09 22.245667 23 16 58.863 -00 12 45.18 20.03 V 645 – Apache Point-Sloan Digital Sky Survey MPS 390154
2005 09 22.249139 23 16 58.681 -00 12 45.53 20.69   645 – Apache Point-Sloan Digital Sky Survey MPS 390154
2005 09 22.26003 23 16 58.16 -00 12 46.3 20.6 R 644 – Palomar Mountain/NEAT MPS 143813
2005 09 22.28562 23 16 56.81 -00 12 49.8 20.6 R 644 – Palomar Mountain/NEAT MPS 143813
2005 09 22.30757 23 16 55.63 -00 12 52.5 20.8 R 644 – Palomar Mountain/NEAT MPS 143813
2005 09 23.243637 23 16 07.982 -00 14 48.13 20.33 V 645 – Apache Point-Sloan Digital Sky Survey MPS 390154
2005 09 23.247109 23 16 07.799 -00 14 48.47 20.94   645 – Apache Point-Sloan Digital Sky Survey MPS 390154
2005 09 25.278257 23 14 25.674 -00 18 57.71 20.22 V 645 – Apache Point-Sloan Digital Sky Survey MPS 390154
2005 09 25.281729 23 14 25.498 -00 18 58.15 20.94   645 – Apache Point-Sloan Digital Sky Survey MPS 390154
2005 09 27.241177 23 12 49.323 -00 22 55.20 20.74 V 645 – Apache Point-Sloan Digital Sky Survey MPS 390154
2005 09 27.244649 23 12 49.150 -00 22 55.68 21.81   645 – Apache Point-Sloan Digital Sky Survey MPS 390154
2005 09 29.19372 23 11 16.08 -00 26 44.5 19.6 R 699 – Lowell Observatory-LONEOS MPS 142607
2005 09 29.21653 23 11 15.03 -00 26 47.7   699 – Lowell Observatory-LONEOS MPS 142607
2005 09 29.23931 23 11 13.81 -00 26 50.8   699 – Lowell Observatory-LONEOS MPS 142607
2005 09 29.26215 23 11 12.82 -00 26 52.2   699 – Lowell Observatory-LONEOS MPS 142607
2005 10 01.10309 23 09 47.67 -00 30 25.2 20.5 V 691 – Steward Observatory, Kitt Peak-Spacewatch MPS 143813
2005 10 01.11867 23 09 46.95 -00 30 26.8 20.4 V 691 – Steward Observatory, Kitt Peak-Spacewatch MPS 143813
2005 10 01.13417 23 09 46.23 -00 30 28.5 20.6 V 691 – Steward Observatory, Kitt Peak-Spacewatch MPS 143813
2005 10 12.206127 23 02 23.817 -00 47 59.71 20.50 V 645 – Apache Point-Sloan Digital Sky Survey MPS 390154
2005 10 12.209599 23 02 23.700 -00 48 00.02 20.93   645 – Apache Point-Sloan Digital Sky Survey MPS 390154
2005 10 20.214147 22 58 36.362 -00 54 59.35 20.70 V 645 – Apache Point-Sloan Digital Sky Survey MPS 390154
2005 10 20.217619 22 58 36.268 -00 54 59.38 21.53   645 – Apache Point-Sloan Digital Sky Survey MPS 390154
2005 10 25.202627 22 56 59.242 -00 56 20.16 20.72 V 645 – Apache Point-Sloan Digital Sky Survey MPS 390154
2005 10 25.206099 22 56 59.180 -00 56 20.08 21.48   645 – Apache Point-Sloan Digital Sky Survey MPS 390154
2005 10 27.207147 22 56 30.260 -00 56 09.66 20.66 V 645 – Apache Point-Sloan Digital Sky Survey MPS 390154
2005 10 27.210619 22 56 30.215 -00 56 09.63 21.41   645 – Apache Point-Sloan Digital Sky Survey MPS 390154
2005 11 26.182227 23 00 39.456 +00 00 09.39 21.28 V 645 – Apache Point-Sloan Digital Sky Survey MPS 390154
2005 11 26.185699 23 00 39.553 +00 00 10.19 21.94   645 – Apache Point-Sloan Digital Sky Survey MPS 390154
2005 11 30.169217 23 02 41.285 +00 15 15.09 21.34 V 645 – Apache Point-Sloan Digital Sky Survey MPS 390154
2005 11 30.172689 23 02 41.400 +00 15 15.81 22.10   645 – Apache Point-Sloan Digital Sky Survey MPS 390154
2006 12 12.32346 07 26 43.60 +36 59 29.2 19.5   704 – Lincoln Laboratory ETS, New Mexico MPS 191943
2006 12 12.33627 07 26 42.89 +36 59 30.1 20.0   704 – Lincoln Laboratory ETS, New Mexico MPS 191943
2006 12 12.36223 07 26 41.75 +36 59 34.2 20.0   704 – Lincoln Laboratory ETS, New Mexico MPS 191943
2006 12 12.37503 07 26 41.11 +36 59 35.8 20.1   704 – Lincoln Laboratory ETS, New Mexico MPS 191943
2006 12 20.31451 07 19 56.20 +37 15 09.6 19.4 V 703 – Catalina Sky Survey MPS 191943
2006 12 20.32169 07 19 55.84 +37 15 11.8 19.9 V 703 – Catalina Sky Survey MPS 191943
2006 12 20.32888 07 19 55.23 +37 15 07.8 20.6 V 703 – Catalina Sky Survey MPS 191943
2006 12 20.33601 07 19 54.87 +37 15 11.5 19.8 V 703 – Catalina Sky Survey MPS 191943
2007 01 17.16307 06 50 15.09 +36 49 37.4 19.5 R 644 – Palomar Mountain/NEAT MPS 196988
2007 01 17.18386 06 50 13.82 +36 49 33.2 19.5 R 644 – Palomar Mountain/NEAT MPS 196988
2007 01 17.20594 06 50 12.45 +36 49 29.0 19.6 R 644 – Palomar Mountain/NEAT MPS 196988
2008 03 01.44637 13 18 54.34 -16 59 49.6 20.5 V 691 – Steward Observatory, Kitt Peak-Spacewatch MPS 240634
2008 03 01.46402 13 18 53.86 -16 59 51.5 20.8 V 691 – Steward Observatory, Kitt Peak-Spacewatch MPS 240634
2008 03 01.48166 13 18 53.36 -16 59 53.6 20.4 V 691 – Steward Observatory, Kitt Peak-Spacewatch MPS 240634
2008 03 05.42964 13 16 56.91 -17 07 01.3   691 – Steward Observatory, Kitt Peak-Spacewatch MPS 240634
2008 03 05.44731 13 16 56.30 -17 07 02.0   691 – Steward Observatory, Kitt Peak-Spacewatch MPS 240634
2008 03 05.46261 13 16 55.80 -17 07 03.6   691 – Steward Observatory, Kitt Peak-Spacewatch MPS 240634
2010 08 30.87470 22 49 29.86 -07 22 05.4 19.4 V J75 – OAM Observatory, La Sagra MPS 346982
2010 08 30.88907 22 49 29.03 -07 22 06.8 19.2 V J75 – OAM Observatory, La Sagra MPS 346982
2010 08 30.90340 22 49 28.25 -07 22 07.8 19.2 V J75 – OAM Observatory, La Sagra MPS 346982
2010 09 01.32001 22 48 13.80 -07 24 39.9 19.8   704 – Lincoln Laboratory ETS, New Mexico MPS 346982
2010 09 01.33150 22 48 13.11 -07 24 39.7 20.1   704 – Lincoln Laboratory ETS, New Mexico MPS 346982
